Location: Wells
(51.2093°N, 2.6446°W)
Time: 20:16:11
(UTC+01:00)

LilacSat-2 - Pass Details

Date: 22 March 2026
Orbit: 412 x 424 km, 97.5° (Epoch: 21 April)

Event Time Altitude Azimuth Distance (km) Brightness Sun altitude
Rises 20:00:35 0° 197° (SSW) 2,391 ? -15.1°
Reaches altitude 10° 20:02:55 10° 214° (SSW) 1,530 ? -15.5°
Maximum altitude 20:05:30 21° 266° (W) 1,020 ? -15.8°
Drops below altitude 10° 20:08:06 10° 318° (NW) 1,538 ? -16.2°
Sets 20:10:27 0° 335° (NNW) 2,409 ? -16.5°
